TimeCDT,TemperatureF,Dew PointF,Humidity,Sea Level PressureIn,VisibilityMPH,Wind Direction,Wind SpeedMPH,Gust SpeedMPH,PrecipitationIn,Events,Conditions,WindDirDegrees,DateUTC
1:07 AM,69.8,69.8,100,29.92,6.0,East,4.6,-,N/A,Rain,Light Rain,100,2011-10-03 06:07:00
2:38 AM,71.6,71.6,100,29.94,6.0,East,6.9,-,N/A,Rain,Light Rain,100,2011-10-03 07:38:00
2:40 AM,71.6,71.6,100,29.94,6.0,SSE,5.8,-,N/A,Rain,Rain,150,2011-10-03 07:40:00
3:40 AM,71.6,71.6,100,29.96,7.0,Calm,Calm,-,N/A,,Mostly Cloudy,0,2011-10-03 08:40:00
4:40 AM,71.6,71.6,100,29.94,7.0,East,4.6,-,N/A,,Scattered Clouds,80,2011-10-03 09:40:00
5:47 AM,71.6,71.6,100,29.96,5.0,ENE,8.1,-,N/A,Rain,Rain,60,2011-10-03 10:47:00
6:50 AM,71.6,71.6,100,29.95,6.0,East,3.5,-,N/A,Rain,Light Rain,100,2011-10-03 11:50:00
7:43 AM,69.8,69.8,100,29.99,6.0,Calm,Calm,-,N/A,,Overcast,0,2011-10-03 12:43:00
8:54 AM,71.6,71.6,100,30.02,6.0,East,3.5,-,N/A,,Mostly Cloudy,100,2011-10-03 13:54:00
9:48 AM,69.8,69.8,100,30.06,2.0,Calm,Calm,-,N/A,Rain,Rain,0,2011-10-03 14:48:00
10:49 AM,71.6,71.6,100,30.05,3.0,North,3.5,-,N/A,Rain,Rain,360,2011-10-03 15:49:00
11:41 AM,71.6,71.6,100,30.04,5.0,Calm,Calm,-,N/A,,Overcast,0,2011-10-03 16:41:00
12:47 PM,73.4,73.4,100,29.97,7.0,NNE,5.8,-,N/A,,Overcast,30,2011-10-03 17:47:00
1:45 PM,77.0,73.4,89,29.98,7.0,NNE,6.9,-,N/A,,Overcast,30,2011-10-03 18:45:00
2:53 PM,77.0,73.4,89,29.96,7.0,NNE,5.8,-,N/A,,Overcast,20,2011-10-03 19:53:00
3:42 PM,77.0,73.4,89,29.97,7.0,NE,9.2,-,N/A,,Mostly Cloudy,40,2011-10-03 20:42:00
4:47 PM,77.0,73.4,89,29.94,7.0,NE,17.3,-,N/A,,Mostly Cloudy,50,2011-10-03 21:47:00
5:46 PM,73.4,71.6,94,29.95,7.0,ENE,5.8,-,N/A,,Mostly Cloudy,70,2011-10-03 22:46:00
6:41 PM,71.6,71.6,100,29.93,7.0,Calm,Calm,-,N/A,,Mostly Cloudy,0,2011-10-03 23:41:00
7:46 PM,71.6,71.6,100,29.98,7.0,Calm,Calm,-,N/A,,Mostly Cloudy,0,2011-10-04 00:46:00
8:47 PM,71.6,71.6,100,29.99,7.0,Calm,Calm,-,N/A,,Mostly Cloudy,0,2011-10-04 01:47:00
9:49 PM,71.6,71.6,100,30.04,7.0,Calm,Calm,-,N/A,,Mostly Cloudy,0,2011-10-04 02:49:00
10:42 PM,71.6,71.6,100,30.01,7.0,Calm,Calm,-,N/A,,Scattered Clouds,0,2011-10-04 03:42:00
11:40 PM,71.6,71.6,100,30.00,7.0,Calm,Calm,-,N/A,,Scattered Clouds,0,2011-10-04 04:40:00